When you browse on this site, cookies collect data to enhance your experience and personalize the content and advertising you see.
Visit our Privacy Policy to learn more. By continuing to use the site, you agree to this use of cookies and data.
  • In France
  • List of Countries
  • For 7 days
  • Water Temperature
  • Satellite Maps
  • Weather Map
  • Weather Widgets
  • user-avatar
    Login

    Hourly Weather Shkoder

    Today, 24 March, Sunday

    Time Temperature Precipitation Wind Pressure Humidity
    00:00 +12°C° 0 mm 3 mps 743 mmHg 65%
    01:00 +11°C° 0 mm 4 mps 743 mmHg 65%
    02:00 +11°C° 0 mm 4 mps 743 mmHg 64%
    03:00 +11°C° 0 mm 4 mps 743 mmHg 63%
    04:00 +10°C° 0 mm 3 mps 743 mmHg 62%
    05:00 +10°C° 0 mm 3 mps 743 mmHg 60%
    06:00 +11°C° 0 mm 3 mps 743 mmHg 58%
    07:00 +11°C° 0 mm 3 mps 743 mmHg 55%
    08:00 +13°C° 0 mm 3 mps 743 mmHg 48%
    09:00 +17°C° 0 mm 3 mps 743 mmHg 41%
    10:00 +19°C° 0 mm 2 mps 743 mmHg 34%
    11:00 +20°C° 0 mm 2 mps 743 mmHg 32%
    12:00 +21°C° 0 mm 2 mps 743 mmHg 31%
    13:00 +22°C° 0 mm 1 mps 742 mmHg 29%
    14:00 +22°C° 0 mm 1 mps 742 mmHg 31%
    15:00 +21°C° 0 mm 2 mps 742 mmHg 33%
    16:00 +21°C° 0 mm 2 mps 741 mmHg 34%
    17:00 +20°C° 0 mm 1 mps 741 mmHg 40%
    18:00 +18°C° 0 mm 1 mps 741 mmHg 46%
    19:00 +15°C° 0 mm 1 mps 741 mmHg 52%
    20:00 +15°C° 0 mm 1 mps 741 mmHg 52%
    21:00 +14°C° 0 mm 1 mps 741 mmHg 52%
    22:00 +14°C° 0 mm 1 mps 741 mmHg 52%
    23:00 +13°C° 0 mm 1 mps 741 mmHg 53%

    Tomorrow, 25 March, Monday

    Time Temperature Precipitation Wind Pressure Humidity
    00:00 +13°C° 0 mm 1 mps 741 mmHg 53%
    01:00 +13°C° 0 mm 1 mps 741 mmHg 54%
    02:00 +12°C° 0 mm 1 mps 741 mmHg 56%
    03:00 +12°C° 0 mm 1 mps 740 mmHg 58%
    04:00 +11°C° 0 mm 1 mps 740 mmHg 60%
    05:00 +12°C° 0 mm 1 mps 740 mmHg 60%
    06:00 +12°C° 0 mm 1 mps 740 mmHg 60%
    07:00 +13°C° 0 mm 1 mps 739 mmHg 61%
    08:00 +14°C° 0 mm 1 mps 739 mmHg 56%
    09:00 +16°C° 0 mm 2 mps 739 mmHg 52%
    10:00 +17°C° 0 mm 2 mps 738 mmHg 48%
    11:00 +18°C° 0 mm 2 mps 738 mmHg 47%
    12:00 +18°C° 0 mm 2 mps 737 mmHg 46%
    13:00 +19°C° 0 mm 3 mps 737 mmHg 45%
    14:00 +18°C° 0 mm 3 mps 736 mmHg 46%
    15:00 +18°C° 0 mm 2 mps 736 mmHg 48%
    16:00 +17°C° 0 mm 2 mps 735 mmHg 49%
    17:00 +16°C° 0 mm 2 mps 735 mmHg 56%
    18:00 +14°C° 0 mm 1 mps 735 mmHg 64%
    19:00 +11°C° 0 mm 0 mps 735 mmHg 71%
    20:00 +12°C° 0 mm 1 mps 735 mmHg 71%
    21:00 +12°C° 0 mm 1 mps 736 mmHg 71%
    22:00 +11°C° 0 mm 1 mps 736 mmHg 72%
    23:00 +11°C° 0 mm 1 mps 736 mmHg 71%

    Day after tomorrow, 26 March, Tuesday

    Time Temperature Precipitation Wind Pressure Humidity
    00:00 +11°C° 0 mm 1 mps 736 mmHg 70%
    01:00 +11°C° 0 mm 1 mps 736 mmHg 68%
    02:00 +11°C° 0 mm 1 mps 736 mmHg 67%
    03:00 +10°C° 0 mm 2 mps 736 mmHg 66%
    04:00 +10°C° 0 mm 2 mps 736 mmHg 64%
    05:00 +10°C° 0 mm 2 mps 737 mmHg 65%
    06:00 +10°C° 0 mm 3 mps 737 mmHg 66%
    07:00 +11°C° 0 mm 3 mps 738 mmHg 68%
    08:00 +12°C° 0 mm 3 mps 738 mmHg 63%
    09:00 +13°C° 0 mm 4 mps 738 mmHg 58%
    10:00 +14°C° 0 mm 4 mps 739 mmHg 53%
    11:00 +15°C° 0 mm 4 mps 739 mmHg 51%
    12:00 +15°C° 0 mm 5 mps 739 mmHg 48%
    13:00 +15°C° 0 mm 5 mps 739 mmHg 46%
    14:00 +15°C° 0 mm 5 mps 739 mmHg 46%
    15:00 +15°C° 0 mm 5 mps 739 mmHg 47%
    16:00 +14°C° 0 mm 5 mps 739 mmHg 47%
    17:00 +13°C° 0 mm 5 mps 740 mmHg 50%
    18:00 +12°C° 0 mm 5 mps 740 mmHg 54%
    19:00 +9°C° 0 mm 5 mps 741 mmHg 57%
    20:00 +9°C° 0 mm 5 mps 741 mmHg 57%
    21:00 +8°C° 0 mm 5 mps 742 mmHg 56%
    22:00 +8°C° 0 mm 5 mps 742 mmHg 56%
    23:00 +8°C° 0 mm 5 mps 743 mmHg 56%

    27 March, Wednesday

    Time Temperature Precipitation Wind Pressure Humidity
    00:00 +7°C° 0 mm 5 mps 743 mmHg 55%
    01:00 +7°C° 0 mm 4 mps 743 mmHg 55%
    02:00 +6°C° 0 mm 4 mps 743 mmHg 55%
    03:00 +6°C° 0 mm 4 mps 743 mmHg 55%
    04:00 +6°C° 0 mm 4 mps 743 mmHg 56%
    05:00 +6°C° 0 mm 4 mps 743 mmHg 55%
    06:00 +7°C° 0 mm 4 mps 743 mmHg 55%
    07:00 +7°C° 0 mm 4 mps 743 mmHg 54%
    08:00 +10°C° 0 mm 4 mps 743 mmHg 48%
    09:00 +10°C° 0 mm 5 mps 743 mmHg 43%
    10:00 +13°C° 0 mm 5 mps 743 mmHg 37%
    11:00 +13°C° 0 mm 4 mps 743 mmHg 36%
    12:00 +14°C° 0 mm 4 mps 743 mmHg 36%
    13:00 +14°C° 0 mm 3 mps 743 mmHg 35%
    14:00 +14°C° 0 mm 3 mps 742 mmHg 36%
    15:00 +14°C° 0 mm 4 mps 742 mmHg 38%
    16:00 +14°C° 0 mm 4 mps 742 mmHg 39%
    17:00 +13°C° 0 mm 4 mps 742 mmHg 41%
    18:00 +12°C° 0 mm 4 mps 743 mmHg 44%
    19:00 +11°C° 0 mm 4 mps 743 mmHg 46%
    20:00 +10°C° 0 mm 4 mps 744 mmHg 48%
    21:00 +10°C° 0 mm 4 mps 744 mmHg 50%
    22:00 +8°C° 0 mm 4 mps 744 mmHg 52%
    23:00 +8°C° 0 mm 4 mps 744 mmHg 53%

    28 March, Thursday

    Time Temperature Precipitation Wind Pressure Humidity
    00:00 +8°C° 0 mm 4 mps 744 mmHg 54%
    01:00 +7°C° 0 mm 4 mps 744 mmHg 54%
    02:00 +7°C° 0 mm 4 mps 744 mmHg 55%
    03:00 +7°C° 0 mm 4 mps 744 mmHg 55%
    04:00 +7°C° 0 mm 4 mps 744 mmHg 55%
    05:00 +7°C° 0 mm 4 mps 744 mmHg 56%
    06:00 +7°C° 0 mm 4 mps 744 mmHg 57%
    07:00 +8°C° 0 mm 5 mps 744 mmHg 59%
    08:00 +9°C° 0 mm 5 mps 744 mmHg 57%
    09:00 +10°C° 0 mm 5 mps 744 mmHg 55%
    10:00 +13°C° 0 mm 5 mps 744 mmHg 53%
    11:00 +13°C° 0 mm 5 mps 744 mmHg 52%
    12:00 +14°C° 0 mm 5 mps 744 mmHg 50%
    13:00 +14°C° 0 mm 5 mps 744 mmHg 49%
    14:00 +14°C° 0 mm 5 mps 744 mmHg 50%
    15:00 +14°C° 0 mm 5 mps 744 mmHg 51%
    16:00 +14°C° 0 mm 5 mps 744 mmHg 53%
    17:00 +12°C° 0 mm 4 mps 744 mmHg 56%
    18:00 +11°C° 0 mm 4 mps 744 mmHg 60%
    19:00 +10°C° 0 mm 4 mps 744 mmHg 63%
    20:00 +10°C° 0 mm 4 mps 745 mmHg 64%
    21:00 +8°C° 0 mm 4 mps 745 mmHg 65%
    22:00 +8°C° 0 mm 4 mps 745 mmHg 66%
    23:00 +7°C° 0 mm 4 mps 745 mmHg 66%

    29 March, Friday

    Time Temperature Precipitation Wind Pressure Humidity
    00:00 +7°C° 0 mm 4 mps 745 mmHg 67%
    01:00 +7°C° 0 mm 4 mps 745 mmHg 67%
    02:00 +6°C° 0 mm 4 mps 745 mmHg 67%
    03:00 +6°C° 0 mm 4 mps 746 mmHg 67%
    04:00 +5°C° 0 mm 4 mps 746 mmHg 67%
    05:00 +6°C° 0 mm 4 mps 746 mmHg 64%
    06:00 +6°C° 0 mm 4 mps 746 mmHg 61%
    07:00 +7°C° 0 mm 4 mps 746 mmHg 57%
    08:00 +8°C° 0 mm 5 mps 746 mmHg 51%
    09:00 +10°C° 0 mm 5 mps 745 mmHg 44%
    10:00 +12°C° 0 mm 5 mps 745 mmHg 37%
    11:00 +13°C° 0 mm 5 mps 745 mmHg 36%
    12:00 +14°C° 0 mm 4 mps 745 mmHg 34%
    13:00 +14°C° 0 mm 4 mps 744 mmHg 33%
    14:00 +14°C° 0 mm 4 mps 744 mmHg 33%
    15:00 +14°C° 0 mm 4 mps 744 mmHg 34%
    16:00 +14°C° 0 mm 4 mps 743 mmHg 35%
    17:00 +12°C° 0 mm 3 mps 744 mmHg 39%
    18:00 +11°C° 0 mm 3 mps 744 mmHg 44%
    19:00 +9°C° 0 mm 3 mps 744 mmHg 48%
    20:00 +8°C° 0 mm 3 mps 745 mmHg 50%
    21:00 +7°C° 0 mm 4 mps 745 mmHg 52%
    22:00 +6°C° 0 mm 4 mps 745 mmHg 54%
    23:00 +6°C° 0 mm 4 mps 745 mmHg 55%
    Show more